Tracking 29892 objects as of 21-Nov-2024
HD Live streaming from Space Station
objects crossing your sky now

STARLINK-1365

Track STARLINK-1365 now!
10-day predictions
STARLINK-1365 is classified as:


NORAD ID: 45590
Int'l Code: 2020-025BM
Perigee: 553.4 km
Apogee: 555.3 km
Inclination: 53.1 °
Period: 95.6 minutes
Semi major axis: 6925 km
RCS: Unknown
Launch date: April 22, 2020
Source: United States (US)
Launch site: AIR FORCE EASTERN TEST RANGE (AFETR)
Your satellite tracking list
Your tracking list is empty




NASA's NSSDC Master Catalog

Two Line Element Set (TLE):
1 45590U 20025BM  24324.59475585  .00000761  00000-0  70009-4 0  9999
2 45590  53.0533  79.4022 0001399  74.7374 285.3770 15.06398496253498
Source of the keplerian elements: AFSPC